Orbital Elements at Epoch 2459200.5 (2020-Dec-17.0) TDB
Reference: JPL 26 (heliocentric ecliptic J2000)
Element | Value | Uncertainty (1-sigma) | Units |
e | .09512814360699751 | 6.1791e-08 | |
a | 2.543211786947857 | 9.7645e-09 | au |
q | 2.301280770856072 | 1.5931e-07 | au |
i | 5.056372075721153 | 4.1203e-06 | deg |
node | 223.2231347949728 | 4.3387e-05 | deg |
peri | 317.7543611784215 | 4.7344e-05 | deg |
M | 212.9990760767751 | 2.2206e-05 | deg |
tp | 2459805.408632209417 (2022-Aug-13.90863221) | 9.3354e-05 | TDB |
period | 1481.39958432591 4.06 | 8.5316e-06 2.336e-08 | d yr |
n | .2430134339235777 | 1.3996e-09 | deg/d |
Q | 2.785142803039641 | 1.0693e-08 | au |
|
| | Orbit Determination Parameters
Additional Information
|